Regional Weather Roundup
Issued by NWS

Home | Current Version | Previous Version | Graphics & Text | Print | Product List | Glossary On
Versions: 1 2 3 4 5 6 7 8 9 10 11 12 13 14 15 16 17 18 19 20 21 22 23 24 25 26 27 28 29 30 31 32 33 34 35 36 37 38 39 40 41 42 43 44 45 46 47 48 49 50
000
ASUS45 KSLC 231010
RWRUT

UTAH REGIONAL WEATHER ROUNDUP
NATIONAL WEATHER SERVICE SALT LAKE CITY UT
400 AM MDT TUE SEP 23 2014

UTZ001>011-023>025-231100-

NORTHERN UTAH

CITY           SKY/WX    TMP DP  RH WIND       PRES   REMARKS
HILL AFB       PTCLDY    62  49  63 E10       30.14S
LOGAN          MOCLDY    53  51  93 N3        30.14R
OGDEN          CLEAR     61  50  67 S8        30.12R
PROVO AIRPORT  CLEAR     57  50  77 SE3       30.16S
SALT LAKE CITY PTCLDY    62  53  72 SE6       30.11S
VERNAL         CLOUDY    57  50  77 CALM      30.18S
WENDOVER       CLEAR     59  50  72 CALM      30.12S
HEBER CITY     PTCLDY    50  48  93 CALM      30.21S
WEST JORDAN    CLEAR     57  48  72 S5        30.14S

$$

UTZ012>022-026-027-231100-

SOUTHERN UTAH

CITY           SKY/WX    TMP DP  RH WIND       PRES   REMARKS
BRYCE CANYON   CLEAR     39  35  86 W10       30.35F WCI  32
CEDAR CITY     CLEAR     49  40  71 CALM      30.23R
MILFORD        CLEAR     54  47  77 S7        30.17
MOAB/CYNLANDS  PTCLDY    60  56  86 CALM      30.13R
PRICE          CLEAR     57  51  80 NE6       30.22S
ST GEORGE      MOSUNNY   66  46  48 SE5       30.09R
KANAB            N/A     50  43  76 NE6       30.23F

$$

REGIONAL REPORTS     COLORADO/ARIZONA

CITY           SKY/WX    TMP DP  RH WIND       PRES   REMARKS
CRAIG, CO      CLOUDY    51  48  89 CALM      30.24S
GRAND JUNCTION MOCLDY    58  52  80 E6        30.16S
RIFLE          MOCLDY    56  50  80 CALM      30.22S
MONTROSE       PTCLDY    54  48  80 SE7       30.24F
CORTEZ         CLEAR     46  43  89 E3        30.26S
PAGE, AZ       CLEAR     68  43  40 SW5       30.13S
GRAND CANYON   CLEAR     40  37  89 CALM      30.31S
KINGMAN        CLEAR     59  35  40 S3        30.09F
FLAGSTAFF      CLEAR     45  41  86 SW3       30.32F

$$

REGIONAL REPORTS    NEVADA/IDAHO/WYOMING

CITY           SKY/WX    TMP DP  RH WIND       PRES   REMARKS
LAS VEGAS, NV  CLEAR     76  35  22 S10       29.95S
ELY            CLEAR     47  43  86 SE10      30.25R
ELKO           CLEAR     51  43  74 E5        30.15S
POCATELLO, ID  CLEAR     49  48  97 CALM      30.14S
BURLEY         CLEAR     49  46  90 CALM      30.10S
EVANSTON, WY   CLOUDY    53  44  71 SW7       30.27S
ROCK SPRINGS   PTCLDY    48  42  80 SW7       30.24S

$$


USA.gov is the U.S. government's official web portal to all federal, state and local government web resources and services.